Regional Weather Roundup
Issued by NWS Jackson, KY

Home | Current Version | Previous Version | Text Only | Print | Product List | Glossary Off
Versions: 1 2 3 4 5 6 7 8 9 10 11 12 13 14 15 16 17 18 19 20 21 22 23 24 25 26 27 28 29 30 31 32 33 34 35 36 37 38 39 40 41 42 43 44 45 46 47 48 49 50

000
ASUS43 KJKL 180505
RWRJKL

EAST KENTUCKY HOURLY WEATHER ROUNDUP
NATIONAL WEATHER SERVICE JACKSON KY
100 AM EDT THU SEP 18 2014

NOTE: "FAIR" INDICATES FEW OR NO CLOUDS BELOW 12,000 FEET WITH
NO SIGNIFICANT WEATHER AND/OR OBSTRUCTIONS TO VISIBILITY.

* THESE REPORTS ARE NOT UNDER NWS QUALITY CONTROL AND MAY NOT
  REPORT WEATHER SUCH AS PRECIPITATION AND FOG.

KYZ079-080-083-085-087-088-110-112-115-119-120-180600
...EASTERN KENTUCKY...

CITY           SKY/WX    TMP DP  RH WIND       PRES   REMARKS
JACKSON        CLEAR     58  53  84 CALM      29.99S
LONDON         PTCLDY    58  54  86 CALM      30.00S
MONTICELLO*    CLEAR     56  55  96 CALM      30.01S
WILLIAMSBURG*  CLEAR     55  55 100 CALM      30.00S
MIDDLESBORO*   PTCLDY    55  54  97 CALM      30.00R
HARLAN APT*    CLOUDY    55  55 100 MISG      29.99S VSB 3/4
BLACK MTN*       N/A     54  52  94 S6          N/A
PIKEVILLE APT* CLEAR     55  55 100 CALM      29.99S
BIG SANDY*     CLEAR     54  53  99 CALM      30.00R
MOREHEAD APT*  CLEAR     55  52  88 NW5       30.03R
$$

KYZ035-036-041-042-044-050-067-078-099-180600
...CENTRAL KENTUCKY...

CITY           SKY/WX    TMP DP  RH WIND       PRES   REMARKS
MT STERLING*   CLEAR     52  52 100 CALM      30.03R
FLEMING/MASON* CLEAR     55  51  86 N5        30.02S
DANVILLE*      MOCLDY    55  54  94 CALM      30.02S
RICHMOND*      PTCLDY    55  52  88 CALM      30.01R
LEXINGTON      CLEAR     57  52  83 CALM      30.02R
FRANKFORT      PTCLDY    54  52  93 NW3       30.01R
$$

KYZ091>093-OHZ055-061-077-WVZ005-015-034-035-042-180600
...SOUTHERN OHIO/WEST VIRGINIA...

CITY           SKY/WX    TMP DP  RH WIND       PRES   REMARKS
COVINGTON      PTCLDY    53  47  79 CALM      30.02S
COLUMBUS       PTCLDY    54  48  80 CALM      30.01S
DAYTON         CLEAR     53  48  83 W3        30.03S
WILMINGTON     CLEAR     50  47  89 NE3       30.02S
HUNTINGTON     CLEAR     54  54 100 CALM      29.99R FOG
CHARLESTON     PTCLDY    59  59 100 CALM      29.97F FOG
PINEVILLE*     CLOUDY    57  57 100 MISG      30.05S FOG
BECKLEY        CLOUDY    58  55  90 CALM      30.01F
BLUEFIELD      CLEAR     58  54  86 CALM      30.02F FOG
$$

VAZ002-007-008-TNZ017-027-036-066-071-180600
...SOUTHWEST VIRGINIA/EAST TENNESSEE...

CITY           SKY/WX    TMP DP  RH WIND       PRES   REMARKS
WISE*          CLEAR     55  55 100 CALM      30.02F
JONESVILLE*    CLEAR     54  54 100 CALM      30.00S
ABINGDON*      CLEAR     57  56  98 CALM      30.00F FOG
BRISTOL        CLEAR     54  52  93 CALM      29.98F FOG
KNOXVILLE      PTCLDY    62  59  90 W5        29.95S
OAK RIDGE      PTCLDY    62  56  80 CALM      29.99R
CROSSVILLE     CLOUDY    60  55  83 CALM      30.02R
NASHVILLE      CLOUDY    65  59  81 NE3       30.00R
$$

...KEY TO REMARKS...
VSB - VISIBILITY IN MILES
WCI - WIND CHILL INDEX
HX  - HEAT INDEX

$$


USA.gov is the U.S. government's official web portal to all federal, state and local government web resources and services.